CAPE
0 0 0 0 0 0 0 0 0 0 0 0 0 0 0 0 0 0 0 0 0 0
0 1 1 0 0 0 0 0 0 0 0 0 0 0 0 0 0 0 0 0 0 0
0 0 0 0 0 0 0 2 0 0 0 0 0 0 0 0 0 0 0 0 0 0
2 1 1 1 1 1 2 0 0 0 0 0 0 0 0 0 0 0 0 0 0 0
1 2 1 2 3 0 1 0 0 0 0 0 0 0 0 0 0 0 0 0 0 0
1 1 1 1 0 0 0 0 0 0 0 0 0 0 0 0 0 0 0 0 0 0
2 0 0 0 1 1 0 0 0 0 0 0 0 0 0 0 0 0 0 0 0 0
1 2 3 3 3 2 0 0 0 0 0 0 0 0 0 0 0 0 0 0 0 0
1 2 1 2 2 3 2 0 0 0 0 0 0 0 0 0 0 0 0 0 0 0
3 0 0 0 1 4 3 0 0 0 0 0 1 2 3 0 0 0 0 0 0 0
2 0 0 4 0 4 2 0 0 0 1 2 5 4 0 0 0 0 0 0 0 0
1 1 0 3 5 3 1 0 1 1 2 1 2 0 0 0 0 0 0 0 0 0
3 4 4 4 4 2 1 3 2 1 0 0 0 0 0 0 0 0 0 0 0 0
1 2 2 4 1 2 2 1 1 2 1 0 0 0 0 0 0 0 0 0 0 0
CIN
0 0 0 0 0 0 0 0 0 0 0 0 0 0 0 0 0 0 0 0 0 0
0 0 0 0 0 0 0 0 0 0 0 0 0 0 0 0 0 0 0 0 0 0
0 0 0 0 0 0 0 0 0 0 0 0 0 0 0 0 0 0 0 0 0 0
-50 0 0 0 0 0 0 0 0 0 0 0 0 0 0 0 0 0 0 0 0 0
0 0 0 0 0 0 0 0 0 0 0 0 0 0 0 0 0 0 0 0 0 0
0 0 0 -1 0 0 0 0 0 0 0 0 0 0 0 0 0 0 0 0 0 0
0 0 0 0 0 0 0 0 0 0 0 0 0 0 0 0 0 0 0 0 0 0
0 0 0 0 0 0 0 0 0 0 0 0 0 0 0 0 0 0 0 0 0 0
0 0 0 0 0 0 0 0 0 0 0 0 0 0 0 0 0 0 0 0 0 0
0 0 0 0 0 0 0 0 0 0 0 0 0 0 0 0 0 0 0 0 0 0
0 0 0 0 0 0 0 0 0 0 0 0 0 0 0 0 0 0 0 0 0 0
0 0 0 0 0 0 0 0 0 0 0 0 0 0 0 0 0 0 0 0 0 0
0 0 0 0 0 0 0 0 0 0 0 0 0 0 0 0 0 0 0 0 0 0
0 0 0 0 0 0 0 0 0 0 0 0 0 0 0 0 0 0 0 0 0 0
Wind_Speed
13 14 17 17 20 22 24 23 22 25 26 27 21 17 17 18 21 18 17 16 16 17
12 13 19 19 21 23 22 24 23 22 25 26 24 21 21 19 19 17 18 13 12 11
9 9 14 17 19 22 22 21 19 20 23 25 23 21 19 16 15 13 12 10 8 8
7 9 10 13 17 19 20 19 17 17 15 23 23 23 21 17 14 10 9 9 7 7
9 9 8 10 16 16 16 17 17 17 17 17 20 15 16 14 10 9 8 5 5 6
6 5 7 11 16 16 13 12 17 15 17 15 12 13 12 10 9 8 6 4 4 6
3 1 1 6 12 16 6 10 15 11 13 14 10 9 10 10 8 6 3 4 7 9
7 6 3 3 10 5 4 9 9 11 14 9 8 9 8 8 4 2 3 7 9 8
9 11 5 7 9 4 6 9 10 9 10 8 8 8 7 5 5 7 7 4 5 7
9 14 13 6 13 9 9 11 9 10 8 8 8 7 7 4 2 1 2 3 5 7
13 13 14 17 15 10 12 13 12 9 10 10 8 5 1 1 2 2 3 5 6 8
16 14 15 12 13 7 9 17 15 16 11 6 3 5 6 6 3 5 5 7 8 10
11 10 8 11 12 13 12 13 14 7 9 10 10 10 10 10 8 7 7 8 9 12
5 4 6 11 12 12 13 12 9 8 8 13 10 15 15 11 7 7 8 9 10 12
Wind_Direction
265 268 263 256 249 247 247 245 240 241 241 238 239 239 239 245 247 247 250 254 266 272
273 270 267 262 254 253 249 247 244 241 243 239 241 239 243 246 245 248 252 256 265 278
273 265 270 265 256 250 248 243 240 240 237 236 235 236 238 239 244 242 252 255 259 276
283 272 266 264 257 249 244 240 229 226 224 229 231 235 238 240 235 234 243 259 265 278
295 279 264 261 255 243 233 236 228 232 229 230 232 232 234 231 232 229 236 243 263 296
307 280 266 262 244 236 234 234 227 232 225 219 212 218 222 216 218 225 241 260 300 323
31 349 174 253 238 235 213 226 216 212 213 209 196 194 201 201 201 215 257 309 308 313
58 70 45 260 240 175 195 223 194 192 208 191 180 188 185 197 183 214 281 300 311 321
73 76 70 89 106 137 189 174 195 177 190 180 188 164 182 186 228 272 293 303 337 357
82 88 85 82 107 133 135 130 163 183 156 158 180 195 215 258 294 52 314 328 355 351
103 95 79 106 103 125 121 127 135 150 150 192 205 227 97 115 85 43 22 6 5 359
110 109 102 105 115 150 137 117 118 120 128 133 116 103 99 87 66 59 34 18 20 13
86 94 108 110 114 122 124 120 113 134 106 105 103 99 96 92 82 60 37 22 24 17
48 76 119 107 110 118 125 122 118 110 107 102 98 103 104 91 67 56 52 43 23 17